Weather History for Spokane Fairchild, WA

Change the Weather History Date:

Thursday, November 28, 2013

  Actual Average Record
Temperature  
Mean Temperature 28 °F -  
Max Temperature 36 °F 36 °F 48 °F (1997)
Min Temperature 19 °F 26 °F 5 °F (2006)
Degree Days  
Heating Degree Days 38    
Moisture  
Dew Point 25 °F    
Average Humidity 95    
Maximum Humidity 100    
Minimum Humidity 77    
Precipitation  
Precipitation 0.00 in - - ()
Sea Level Pressure  
Sea Level Pressure 30.16 in    
Wind  
Wind Speed 5 mph (NE)    
Max Wind Speed 8 mph    
Max Gust Speed -    
Visibility 3 miles    
Events Fog , Snow    
Averages and records for this station are not official NWS values.
T = Trace of Precipitation, MM = Missing Value Source: NWS Daily Summary

Daily Weather History Graph

Daily Weather History Graph

Search for Another Location

Airport:

Trip Planner

Search our weather history database for the weather conditions in past years. The results will help you decide how hot, cold, wet, or windy it might be!

Date:

Astronomy

Nov. 28, 2013 Rise Set
Actual Time 7:14 AM PST 4:02 PM PST
Civil Twilight 6:39 AM PST 4:37 PM PST
Nautical Twilight 6:01 AM PST 5:15 PM PST
Astronomical Twilight 5:24 AM PST 5:52 PM PST
Moon 2:03 AM PST (11/28) 1:31 PM PST (11/28)
Length of Visible Light 9h 57m
Length of Day
8h 48m
Waning Crescent, 21% of the Moon is Illuminated
Nov 28
Waning Crescent
Dec 2
New
Dec 9
First Quarter
Dec 17
Full
Dec 25
Last Quarter

Hourly Weather History & Observations

Time (PST) Temp. Windchill Dew Point Humidity Pressure Visibility Wind Dir Wind Speed Gust Speed Precip Events Conditions
12:58 AM 26.6 °F 19.1 °F 24.6 °F 92% 30.18 in 10.0 mi NNE 6.9 mph - N/A   Clear
1:58 AM 26.6 °F 20.0 °F 24.6 °F 92% 30.19 in 10.0 mi NNE 5.8 mph - N/A   Clear
2:05 AM 28.4 °F 22.2 °F 24.8 °F 86% 30.11 in 10.0 mi NE 5.8 mph - N/A   Clear
2:14 AM 26.6 °F 20.0 °F 24.8 °F 93% 30.11 in 10.0 mi NE 5.8 mph - N/A   Clear
2:58 AM 26.1 °F 20.5 °F 24.4 °F 94% 30.19 in 10.0 mi NNE 4.6 mph - 0.00 in   Clear
3:58 AM 26.6 °F 18.2 °F 24.8 °F 93% 30.18 in 10.0 mi NNE 8.1 mph - N/A   Clear
4:58 AM 24.6 °F 16.7 °F 23.4 °F 95% 30.20 in 10.0 mi NE 6.9 mph - N/A   Clear
5:58 AM 23.0 °F 13.9 °F 21.9 °F 96% 30.21 in 10.0 mi NE 8.1 mph - N/A   Clear
6:58 AM 25.0 °F 17.1 °F 23.9 °F 96% 30.21 in 10.0 mi NNE 6.9 mph - N/A   Clear
7:58 AM 22.5 °F 13.2 °F 21.6 °F 96% 30.23 in 8.0 mi NE 8.1 mph - N/A   Clear
8:00 AM 23.0 °F 13.9 °F 23.0 °F 100% 30.13 in 3.0 mi NE 8.1 mph - N/A   Partly Cloudy
8:02 AM 23.0 °F 13.9 °F 23.0 °F 100% 30.13 in 1.5 mi NE 8.1 mph - N/A   Partly Cloudy
8:04 AM 23.0 °F 13.9 °F 23.0 °F 100% 30.13 in 1.0 mi NE 8.1 mph - N/A   Mist
8:06 AM 24.8 °F 16.9 °F 23.0 °F 93% 30.13 in 0.8 mi NE 6.9 mph - N/A   Mist
8:07 AM 24.8 °F 16.9 °F 23.0 °F 93% 30.13 in 0.5 mi NE 6.9 mph - N/A Fog Light Freezing Fog
8:08 AM 24.8 °F 16.9 °F 23.0 °F 93% 30.13 in 0.5 mi NE 6.9 mph - N/A Fog Light Freezing Fog
8:12 AM 24.8 °F 16.1 °F 23.0 °F 93% 30.13 in 0.5 mi NE 8.1 mph - N/A Fog Light Freezing Fog
8:13 AM 24.8 °F 16.1 °F 23.0 °F 93% 30.13 in 0.5 mi NE 8.1 mph - N/A Fog Light Freezing Fog
8:15 AM 24.8 °F 16.1 °F 23.0 °F 93% 30.14 in 0.2 mi NE 8.1 mph - N/A Fog Light Freezing Fog
8:16 AM 24.8 °F 16.9 °F 23.0 °F 93% 30.14 in 0.2 mi NE 6.9 mph - N/A Fog Light Freezing Fog
8:21 AM 24.8 °F 16.9 °F 24.8 °F 100% 30.14 in 0.2 mi NE 6.9 mph - N/A Fog Light Freezing Fog
8:23 AM 24.8 °F 16.1 °F 24.8 °F 100% 30.14 in 0.2 mi NE 8.1 mph - N/A Fog Light Freezing Fog
8:25 AM 24.8 °F 16.9 °F 24.8 °F 100% 30.14 in 0.2 mi NE 6.9 mph - N/A Fog Light Freezing Fog
8:31 AM 24.8 °F 16.9 °F 24.8 °F 100% 30.14 in 0.2 mi NE 6.9 mph - N/A Fog Light Freezing Fog
8:58 AM 25.7 °F 18.0 °F 25.0 °F 97% 30.23 in 0.2 mi NE 6.9 mph - 0.00 in Fog Light Freezing Fog
9:02 AM 26.6 °F 20.0 °F 24.8 °F 93% 30.14 in 0.2 mi NE 5.8 mph - N/A Fog Light Freezing Fog
9:08 AM 26.6 °F 18.2 °F 24.8 °F 93% 30.14 in 0.2 mi NE 8.1 mph - N/A Fog Light Freezing Fog
9:16 AM 26.6 °F 19.1 °F 26.6 °F 100% 30.14 in 0.2 mi NE 6.9 mph - N/A Fog Light Freezing Fog
9:26 AM 26.6 °F 19.1 °F 26.6 °F 100% 30.14 in 0.2 mi ENE 6.9 mph - N/A Fog Light Freezing Fog
9:54 AM 26.6 °F 20.0 °F 26.6 °F 100% 30.15 in 0.2 mi NE 5.8 mph - N/A Fog Light Freezing Fog
9:58 AM 27.3 °F 19.9 °F 26.8 °F 98% 30.24 in 0.2 mi NE 6.9 mph - 0.00 in Fog Light Freezing Fog
10:04 AM 26.6 °F 20.0 °F 26.6 °F 100% 30.15 in 0.2 mi NE 5.8 mph - N/A Fog Light Freezing Fog
10:07 AM 26.6 °F 20.0 °F 26.6 °F 100% 30.15 in 0.2 mi NE 5.8 mph - N/A Fog Light Freezing Fog
10:10 AM 26.6 °F 20.0 °F 26.6 °F 100% 30.14 in 0.2 mi ENE 5.8 mph - N/A Fog Light Freezing Fog
10:19 AM 28.4 °F 22.2 °F 26.6 °F 93% 30.15 in 0.2 mi NE 5.8 mph - N/A Fog Light Freezing Fog
10:21 AM 28.4 °F 23.3 °F 26.6 °F 93% 30.15 in 0.2 mi NE 4.6 mph - N/A Fog Light Freezing Fog
10:29 AM 28.4 °F 21.2 °F 28.4 °F 100% 30.15 in 0.2 mi NE 6.9 mph - N/A Fog Light Freezing Fog
10:35 AM 28.4 °F 23.3 °F 26.6 °F 93% 30.15 in 0.2 mi ENE 4.6 mph - N/A Fog Light Freezing Fog
10:45 AM 28.4 °F 24.6 °F 28.4 °F 100% 30.15 in 0.2 mi NNE 3.5 mph - N/A Fog Light Freezing Fog
10:47 AM 28.4 °F 22.2 °F 28.4 °F 100% 30.15 in 0.2 mi NNE 5.8 mph - N/A Fog Light Freezing Fog
10:58 AM 28.2 °F 24.4 °F 27.9 °F 99% 30.24 in 0.2 mi NNE 3.5 mph - N/A Fog Light Freezing Fog
11:02 AM 28.4 °F 23.3 °F 28.4 °F 100% 30.15 in 0.2 mi North 4.6 mph - N/A Fog Light Freezing Fog
11:14 AM 28.4 °F 22.2 °F 28.4 °F 100% 30.15 in 0.2 mi ENE 5.8 mph - N/A Fog Light Freezing Fog
11:15 AM 28.4 °F 22.2 °F 28.4 °F 100% 30.15 in 0.2 mi ENE 5.8 mph - N/A Fog Light Freezing Fog
11:21 AM 28.4 °F 24.6 °F 28.4 °F 100% 30.15 in 0.2 mi NNE 3.5 mph - N/A Fog Light Freezing Fog
11:24 AM 28.4 °F 24.6 °F 28.4 °F 100% 30.15 in 0.5 mi NE 3.5 mph - N/A Fog Light Freezing Fog
11:25 AM 28.4 °F 24.6 °F 28.4 °F 100% 30.15 in 0.5 mi NE 3.5 mph - N/A Fog Light Freezing Fog
11:26 AM 28.4 °F - 28.4 °F 100% 30.15 in 0.5 mi Variable 2.3 mph - N/A Fog Light Freezing Fog
11:29 AM 28.4 °F 24.6 °F 28.4 °F 100% 30.15 in 0.8 mi NNW 3.5 mph - N/A   Mist
11:35 AM 28.4 °F - 28.4 °F 100% 30.15 in 0.8 mi North 1.2 mph - N/A   Mist
11:37 AM 28.4 °F - 28.4 °F 100% 30.15 in 0.8 mi North 1.2 mph - N/A   Mist
11:40 AM 28.4 °F - 28.4 °F 100% 30.15 in 0.8 mi North 1.2 mph - N/A   Mist
11:42 AM 28.4 °F - 28.4 °F 100% 30.15 in 1.0 mi NNW 1.2 mph - N/A   Mist
11:44 AM 28.4 °F - 28.4 °F 100% 30.15 in 1.2 mi NNW 2.3 mph - N/A   Overcast
11:46 AM 28.4 °F - 28.4 °F 100% 30.15 in 2.0 mi NW 1.2 mph - N/A   Overcast
11:48 AM 30.2 °F - 28.4 °F 93% 30.15 in 2.5 mi Variable 2.3 mph - N/A   Overcast
11:50 AM 28.4 °F - 28.4 °F 100% 30.15 in 3.0 mi NNE 2.3 mph - N/A   Overcast
11:58 AM 29.1 °F - 28.6 °F 98% 30.24 in 4.0 mi ENE 2.3 mph - 0.00 in   Overcast
12:06 PM 28.4 °F 23.3 °F 28.4 °F 100% 30.14 in 5.0 mi ENE 4.6 mph - N/A   Mostly Cloudy
12:20 PM 32.0 °F 28.7 °F 32.0 °F 100% 30.14 in 7.0 mi North 3.5 mph - N/A   Mostly Cloudy
12:40 PM 32.0 °F 27.5 °F 32.0 °F 100% 30.13 in 10.0 mi NNE 4.6 mph - N/A   Mostly Cloudy
12:55 PM 32.0 °F 28.7 °F 32.0 °F 100% 30.13 in 10.0 mi NE 3.5 mph - N/A   Scattered Clouds
12:58 PM 31.6 °F 28.3 °F 31.5 °F 99% 30.21 in 10.0 mi NE 3.5 mph - 0.00 in   Scattered Clouds
1:15 PM 32.0 °F 26.4 °F 32.0 °F 100% 30.11 in 10.0 mi ENE 5.8 mph - N/A   Clear
1:47 PM 35.6 °F 31.7 °F 32.0 °F 87% 30.12 in 10.0 mi ENE 4.6 mph - N/A   Clear
1:58 PM 36.1 °F 33.5 °F 30.9 °F 81% 30.20 in 10.0 mi NE 3.5 mph - 0.00 in   Clear
2:58 PM 36.7 °F 34.1 °F 30.0 °F 77% 30.21 in 10.0 mi NE 3.5 mph - N/A   Clear
3:20 PM 35.6 °F 31.7 °F 30.2 °F 81% 30.13 in 10.0 mi ENE 4.6 mph - N/A   Clear
3:30 PM 33.8 °F 29.6 °F 28.4 °F 81% 30.13 in 10.0 mi ENE 4.6 mph - N/A   Clear
3:58 PM 33.1 °F 28.7 °F 28.4 °F 83% 30.20 in 10.0 mi East 4.6 mph - 0.00 in   Partly Cloudy
4:03 PM 32.0 °F 26.4 °F 28.4 °F 87% 30.12 in 10.0 mi East 5.8 mph - N/A   Partly Cloudy
4:16 PM 32.0 °F 28.7 °F 28.4 °F 87% 30.12 in 10.0 mi East 3.5 mph - N/A   Partly Cloudy
4:58 PM 31.3 °F 27.9 °F 27.7 °F 87% 30.23 in 10.0 mi North 3.5 mph - 0.00 in   Clear
5:04 PM 32.0 °F - 26.6 °F 80% 30.14 in 10.0 mi NNW 2.3 mph - N/A   Clear
5:24 PM 32.0 °F - 28.4 °F 87% 30.14 in 10.0 mi NNE 1.2 mph - N/A   Clear
5:45 PM 28.4 °F - 26.6 °F 93% 30.14 in 10.0 mi South 2.3 mph - N/A   Clear
5:57 PM 28.4 °F - 26.6 °F 93% 30.15 in 10.0 mi WSW 2.3 mph - N/A   Clear
5:58 PM 28.9 °F - 27.1 °F 93% 30.25 in 10.0 mi WSW 2.3 mph - 0.00 in   Clear
6:58 PM 29.1 °F - 27.9 °F 95% 30.23 in 10.0 mi Calm Calm - 0.00 in   Clear
7:55 PM 26.6 °F - 26.6 °F 100% 30.15 in 9.0 mi WSW 2.3 mph - N/A   Clear
7:58 PM 27.3 °F - 26.4 °F 96% 30.25 in 9.0 mi SW 2.3 mph - N/A   Clear
8:21 PM 23.0 °F - 21.2 °F 93% 30.15 in 3.0 mi South 2.3 mph - N/A   Clear
8:23 PM 23.0 °F - 21.2 °F 93% 30.15 in 1.2 mi South 2.3 mph - N/A   Clear
8:24 PM 23.0 °F - 21.2 °F 93% 30.15 in 1.2 mi South 2.3 mph - N/A   Clear
8:25 PM 23.0 °F - 21.2 °F 93% 30.15 in 1.0 mi South 2.3 mph - N/A   Clear
8:32 PM 24.8 °F - 23.0 °F 93% 30.15 in 1.2 mi South 2.3 mph - N/A   Clear
8:34 PM 24.8 °F - 23.0 °F 93% 30.15 in 2.0 mi SSW 2.3 mph - N/A   Clear
8:36 PM 23.0 °F - 23.0 °F 100% 30.15 in 3.0 mi SSW 2.3 mph - N/A   Clear
8:51 PM 24.8 °F - 23.0 °F 93% 30.16 in 2.5 mi WSW 2.3 mph - N/A   Clear
8:57 PM 23.0 °F - 23.0 °F 100% 30.16 in 2.5 mi SSW 1.2 mph - N/A   Clear
8:58 PM 23.0 °F - 23.0 °F 100% 30.26 in 2.5 mi SSW 1.2 mph - N/A   Clear
9:10 PM 24.8 °F - 24.8 °F 100% 30.16 in 3.0 mi SSW 1.2 mph - N/A   Clear
9:12 PM 24.8 °F - 24.8 °F 100% 30.16 in 3.0 mi SSW 2.3 mph - N/A   Clear
9:27 PM 26.6 °F - 26.6 °F 100% 30.16 in 2.5 mi West 1.2 mph - N/A   Clear
9:29 PM 26.6 °F - 24.8 °F 93% 30.16 in 2.0 mi West 2.3 mph - N/A   Clear
9:30 PM 24.8 °F - 24.8 °F 100% 30.17 in 1.5 mi West 2.3 mph - N/A   Clear
9:31 PM 24.8 °F - 24.8 °F 100% 30.17 in 1.0 mi West 2.3 mph - N/A   Clear
9:33 PM 24.8 °F - 23.0 °F 93% 30.17 in 0.8 mi West 2.3 mph - N/A   Clear
9:34 PM 24.8 °F - 23.0 °F 93% 30.17 in 0.8 mi West 2.3 mph - N/A   Clear
9:35 PM 24.8 °F - 23.0 °F 93% 30.17 in 0.5 mi West 2.3 mph - N/A Fog Light Freezing Fog
9:45 PM 24.8 °F - 23.0 °F 93% 30.17 in 0.8 mi WSW 2.3 mph - N/A   Clear
9:46 PM 24.8 °F - 23.0 °F 93% 30.17 in 0.5 mi WSW 2.3 mph - N/A Fog Light Freezing Fog
9:58 PM 24.3 °F - 23.2 °F 96% 30.27 in 0.5 mi Calm Calm - 0.00 in Fog Light Freezing Fog
10:04 PM 23.0 °F - 21.2 °F 93% 30.17 in 0.8 mi Calm Calm - N/A   Clear
10:06 PM 23.0 °F - 21.2 °F 93% 30.17 in 0.8 mi Calm Calm - N/A   Clear
10:08 PM 21.2 °F - 19.4 °F 93% 30.17 in 1.2 mi Calm Calm - N/A   Clear
10:09 PM 21.2 °F - 19.4 °F 93% 30.17 in 1.5 mi Calm Calm - N/A   Clear
10:11 PM 21.2 °F - 19.4 °F 93% 30.17 in 1.8 mi Calm Calm - N/A   Clear
10:13 PM 21.2 °F - 21.2 °F 100% 30.17 in 1.0 mi Calm Calm - N/A   Clear
10:17 PM 23.0 °F - 21.2 °F 93% 30.17 in 0.8 mi Calm Calm - N/A   Clear
10:19 PM 23.0 °F - 23.0 °F 100% 30.17 in 0.5 mi Calm Calm - N/A Fog Light Freezing Fog
10:20 PM 24.8 °F - 23.0 °F 93% 30.18 in 0.5 mi NW 1.2 mph - N/A Fog Light Freezing Fog
10:23 PM 24.8 °F 19.1 °F 24.8 °F 100% 30.18 in 0.5 mi WNW 4.6 mph - N/A Fog Light Freezing Fog
10:24 PM 24.8 °F 19.1 °F 24.8 °F 100% 30.18 in 0.2 mi NW 4.6 mph - N/A Fog Light Freezing Fog
10:25 PM 24.8 °F 17.9 °F 23.0 °F 93% 30.18 in 0.2 mi NW 5.8 mph - N/A Fog Light Freezing Fog
10:44 PM 24.8 °F - 24.8 °F 100% 30.17 in 0.2 mi ENE 2.3 mph - N/A Fog Light Freezing Fog
10:58 PM 20.7 °F 15.8 °F 18.9 °F 93% 30.27 in 0.2 mi NE 3.5 mph - 0.00 in Fog Light Freezing Fog
11:01 PM 19.4 °F 12.8 °F 17.6 °F 93% 30.17 in 0.2 mi NE 4.6 mph - N/A Fog Light Freezing Fog
11:05 PM 19.4 °F 12.8 °F 17.6 °F 93% 30.17 in 0.2 mi ENE 4.6 mph - N/A Fog Light Freezing Fog
11:09 PM 19.4 °F 12.8 °F 17.6 °F 93% 30.17 in 0.2 mi ENE 4.6 mph - N/A Fog Light Freezing Fog
11:25 PM 19.4 °F 12.8 °F 19.4 °F 100% 30.16 in 0.2 mi East 4.6 mph - N/A Fog , Snow Light Freezing Fog
11:29 PM 19.4 °F 12.8 °F 19.4 °F 100% 30.16 in 0.2 mi East 4.6 mph - N/A Fog , Snow Light Freezing Fog
11:41 PM 21.2 °F 16.4 °F 19.4 °F 93% 30.16 in 0.2 mi East 3.5 mph - N/A Fog Light Freezing Fog
11:49 PM 21.2 °F 16.4 °F 19.4 °F 93% 30.16 in 0.2 mi ENE 3.5 mph - N/A Fog Light Freezing Fog
11:58 PM 20.5 °F - 19.0 °F 94% 30.27 in 0.2 mi East 2.3 mph - 0.00 in Fog Light Freezing Fog